This is the latest recevied weather packets stored in our database for station/object KB1RMA-13. If no packets are shown the sender has not sent any weather packets the latest 10 day(s).
| Time | Temp. | Humidity | Pressure | Rain* | Wind** | Luminosity | Snow |
|---|---|---|---|---|---|---|---|
| 1777940925 | 18.33° C | 45% | 1007.5 hPa | 0 mm | - | 0 W/m² | - |
| 1777940622 | 18.33° C | 44% | 1007.3 hPa | 0 mm | - | 0 W/m² | - |
| 1777940321 | 18.89° C | 44% | 1006.7 hPa | 0 mm | - | 0 W/m² | - |
| 1777940018 | 18.89° C | 43% | 1007 hPa | 0 mm | - | 0 W/m² | - |
| 1777939715 | 18.89° C | 43% | 1006.7 hPa | 0 mm | - | 0 W/m² | - |
| 1777939413 | 18.89° C | 42% | 1006.4 hPa | 0 mm | - | 0 W/m² | - |
| 1777939109 | 19.44° C | 41% | 1006.4 hPa | 0 mm | - | 1 W/m² | - |
| 1777938806 | 19.44° C | 40% | 1006.5 hPa | 0 mm | - | 1 W/m² | - |
| 1777938503 | 20° C | 37% | 1006.3 hPa | 0 mm | - | 3 W/m² | - |
| 1777938200 | 20° C | 36% | 1006.2 hPa | 0 mm | - | 4 W/m² | - |
| 1777937897 | 20° C | 36% | 1006.2 hPa | 0 mm | - | 6 W/m² | - |
| 1777937592 | 20.56° C | 36% | 1005.9 hPa | 0 mm | - | 9 W/m² | - |
| 1777937289 | 20.56° C | 35% | 1006 hPa | 0 mm | - | 13 W/m² | - |
| 1777936987 | 21.11° C | 35% | 1005.8 hPa | 0 mm | - | 18 W/m² | - |
| 1777936683 | 21.11° C | 35% | 1005.9 hPa | 0 mm | - | 23 W/m² | - |
| 1777936380 | 21.11° C | 34% | 1005.9 hPa | 0 mm | - | 27 W/m² | - |
| 1777936076 | 21.67° C | 33% | 1005.6 hPa | 0 mm | - | 32 W/m² | - |
| 1777935774 | 21.67° C | 33% | 1005.6 hPa | 0 mm | - | 38 W/m² | - |
| 1777935473 | 21.67° C | 33% | 1005.5 hPa | 0 mm | - | 44 W/m² | - |
| 1777935168 | 21.67° C | 33% | 1005.7 hPa | 0 mm | - | 52 W/m² | - |
| 1777934866 | 21.11° C | 34% | 1005.5 hPa | 0 mm | - | 48 W/m² | - |
| 1777934563 | 21.67° C | 33% | 1005.3 hPa | 0 mm | - | 57 W/m² | - |
| 1777934259 | 21.67° C | 33% | 1005.4 hPa | 0 mm | - | 57 W/m² | - |
| 1777933955 | 21.67° C | 33% | 1005.5 hPa | 0 mm | - | 80 W/m² | - |
| 1777933652 | 21.67° C | 32% | 1005.2 hPa | 0 mm | - | 65 W/m² | - |
* Rain latest hour (hover to see other rain measurements)
** Current wind speed in m/s (hover to see current wind gust speed)